TimeEST,TemperatureF,Dew PointF,Humidity,Sea Level PressureIn,VisibilityMPH,Wind Direction,Wind SpeedMPH,Gust SpeedMPH,PrecipitationIn,Events,Conditions,WindDirDegrees,DateUTC
12:53 AM,19.0,16.0,88,29.74,10.0,SW,3.5,-,N/A,,Overcast,220,2014-02-15 05:53:00
1:53 AM,19.0,16.0,88,29.75,10.0,Calm,Calm,-,N/A,,Overcast,0,2014-02-15 06:53:00
2:53 AM,19.9,16.0,85,29.77,10.0,Calm,Calm,-,N/A,,Overcast,0,2014-02-15 07:53:00
3:53 AM,19.0,15.1,85,29.78,10.0,Calm,Calm,-,N/A,,Overcast,0,2014-02-15 08:53:00
4:53 AM,18.0,15.1,88,29.79,10.0,Calm,Calm,-,N/A,,Overcast,0,2014-02-15 09:53:00
5:53 AM,17.1,14.0,88,29.80,10.0,Calm,Calm,-,N/A,,Overcast,0,2014-02-15 10:53:00
6:53 AM,17.1,14.0,88,29.81,10.0,Calm,Calm,-,N/A,,Overcast,0,2014-02-15 11:53:00
7:53 AM,18.0,15.1,88,29.82,10.0,Calm,Calm,-,N/A,,Overcast,0,2014-02-15 12:53:00
8:53 AM,19.0,16.0,88,29.84,10.0,Calm,Calm,-,N/A,,Overcast,0,2014-02-15 13:53:00
9:51 AM,23.0,15.8,74,29.81,10.0,Calm,Calm,-,N/A,,Mostly Cloudy,0,2014-02-15 14:51:00
9:53 AM,23.0,16.0,74,29.84,10.0,Calm,Calm,-,N/A,,Mostly Cloudy,0,2014-02-15 14:53:00
10:09 AM,23.0,17.1,78,29.82,10.0,Calm,Calm,-,N/A,,Overcast,0,2014-02-15 15:09:00
10:53 AM,25.0,17.1,72,29.85,10.0,Calm,Calm,-,N/A,,Overcast,0,2014-02-15 15:53:00
11:53 AM,26.1,18.0,71,29.84,10.0,Calm,Calm,-,N/A,,Overcast,0,2014-02-15 16:53:00
12:53 PM,27.0,19.0,72,29.84,10.0,NW,4.6,-,N/A,,Overcast,310,2014-02-15 17:53:00
1:05 PM,28.0,18.0,66,29.81,9.0,WNW,5.8,-,N/A,,Overcast,300,2014-02-15 18:05:00
1:53 PM,27.0,17.1,66,29.83,10.0,West,8.1,-,N/A,,Overcast,270,2014-02-15 18:53:00
2:41 PM,27.0,16.0,63,29.81,10.0,NW,9.2,-,N/A,,Overcast,310,2014-02-15 19:41:00
2:53 PM,27.0,15.1,61,29.83,10.0,NW,8.1,-,N/A,,Overcast,320,2014-02-15 19:53:00
3:53 PM,25.0,16.0,69,29.84,10.0,WNW,9.2,-,N/A,,Overcast,300,2014-02-15 20:53:00
4:53 PM,24.1,16.0,71,29.87,10.0,WNW,6.9,-,N/A,,Overcast,300,2014-02-15 21:53:00
5:53 PM,24.1,14.0,65,29.88,10.0,NW,5.8,-,N/A,,Overcast,310,2014-02-15 22:53:00
6:53 PM,19.9,12.9,74,29.89,10.0,West,3.5,-,N/A,,Overcast,260,2014-02-15 23:53:00
7:53 PM,19.9,12.9,74,29.89,10.0,West,3.5,-,N/A,,Overcast,270,2014-02-16 00:53:00
8:53 PM,18.0,9.0,68,29.89,10.0,West,5.8,-,N/A,,Scattered Clouds,280,2014-02-16 01:53:00
9:53 PM,15.1,7.0,70,29.88,10.0,West,5.8,-,N/A,,Clear,280,2014-02-16 02:53:00
10:53 PM,12.9,5.0,71,29.89,10.0,WNW,6.9,-,N/A,,Clear,300,2014-02-16 03:53:00
11:53 PM,12.0,3.9,70,29.89,10.0,WNW,8.1,-,N/A,,Partly Cloudy,290,2014-02-16 04:53:00